Weather History for Mount Pleasant, IA

Change the Weather History Date:

Friday, March 16, 2012

  Actual Average Record
Temperature  
Mean Temperature 68 °F -  
Max Temperature 81 °F 50 °F 81 °F (2012)
Min Temperature 54 °F 29 °F 4 °F (1951)
Cooling Degree Days 2    
Growing Degree Days 18 (Base 50)    
Moisture  
Dew Point 57 °F    
Average Humidity 70    
Maximum Humidity 88    
Minimum Humidity 43    
Precipitation  
Precipitation 0.00 in - - ()
Sea Level Pressure  
Sea Level Pressure 29.98 in    
Wind  
Wind Speed 10 mph (South)    
Max Wind Speed 21 mph    
Max Gust Speed 26 mph    
Visibility 10 miles    
Events      
Averages and records for this station are not official NWS values.
T = Trace of Precipitation, MM = Missing Value Source: NWS Daily Summary

Daily Weather History Graph

Daily Weather History Graph

Search for Another Location

Airport:

Trip Planner

Search our weather history database for the weather conditions in past years. The results will help you decide how hot, cold, wet, or windy it might be!

Date:

Astronomy

Mar. 16, 2012 Rise Set
Actual Time 7:15 AM CDT 7:14 PM CDT
Civil Twilight 6:47 AM CDT 7:41 PM CDT
Nautical Twilight 6:15 AM CDT 8:13 PM CDT
Astronomical Twilight 5:43 AM CDT 8:46 PM CDT
Moon 3:36 AM CDT (3/16) 1:32 PM CDT (3/16)
Length of Visible Light 12h 53m
Length of Day
11h 59m
Waning Crescent, 32% of the Moon is Illuminated
Mar 16
Waning Crescent
Mar 22
New
Mar 30
First Quarter
Apr 6
Full
Apr 13
Last Quarter

Hourly Weather History & Observations

Time (CDT) Temp. Heat Index Dew Point Humidity Pressure Visibility Wind Dir Wind Speed Gust Speed Precip Events Conditions
12:15 AM 61.7 °F - 57.2 °F 85% 30.00 in 10.0 mi South 9.2 mph - N/A   Clear
12:35 AM 61.5 °F - 57.2 °F 86% 30.00 in 10.0 mi South 9.2 mph - N/A   Clear
12:55 AM 61.2 °F - 56.7 °F 85% 30.01 in 10.0 mi South 9.2 mph - N/A   Clear
1:15 AM 61.0 °F - 56.3 °F 85% 30.01 in 10.0 mi South 11.5 mph - N/A   Clear
1:35 AM 61.5 °F - 55.2 °F 80% 30.01 in 10.0 mi South 10.4 mph - N/A   Scattered Clouds
1:55 AM 61.2 °F - 54.5 °F 79% 30.01 in 10.0 mi South 9.2 mph - N/A   Scattered Clouds
2:15 AM 59.5 °F - 54.1 °F 82% 30.01 in 10.0 mi South 8.1 mph - N/A   Scattered Clouds
2:35 AM 59.5 °F - 54.0 °F 82% 30.01 in 10.0 mi South 9.2 mph - N/A   Scattered Clouds
2:55 AM 59.4 °F - 53.6 °F 81% 30.01 in 10.0 mi South 10.4 mph - N/A   Scattered Clouds
3:35 AM 59.0 °F - 52.9 °F 80% 29.99 in 10.0 mi SSW 9.2 mph - N/A   Clear
3:55 AM 58.5 °F - 52.7 °F 81% 29.99 in 10.0 mi South 9.2 mph - N/A   Clear
4:15 AM 58.3 °F - 52.5 °F 81% 29.99 in 10.0 mi SSW 8.1 mph - N/A   Clear
4:35 AM 58.1 °F - 52.3 °F 81% 29.99 in 10.0 mi SSW 6.9 mph - N/A   Clear
4:55 AM 57.2 °F - 52.2 °F 83% 29.98 in 10.0 mi SSW 4.6 mph - N/A   Clear
5:15 AM 56.5 °F - 51.8 °F 84% 29.98 in 10.0 mi SSW 6.9 mph - N/A   Clear
5:35 AM 55.9 °F - 51.8 °F 86% 29.98 in 10.0 mi South 6.9 mph - N/A   Clear
5:55 AM 55.0 °F - 51.3 °F 87% 29.98 in 10.0 mi SSE 4.6 mph - N/A   Clear
6:15 AM 54.9 °F - 51.4 °F 88% 29.99 in 10.0 mi SSE 8.1 mph - N/A   Clear
6:35 AM 54.9 °F - 51.4 °F 88% 30.00 in 10.0 mi SSE 8.1 mph - N/A   Scattered Clouds
6:55 AM 55.4 °F - 51.4 °F 87% 30.00 in 10.0 mi SSE 6.9 mph - N/A   Scattered Clouds
7:15 AM 55.2 °F - 51.8 °F 88% 30.01 in 10.0 mi SSE 8.1 mph - N/A   Scattered Clouds
7:35 AM 56.3 °F - 52.7 °F 88% 30.01 in 10.0 mi SSE 8.1 mph - N/A   Scattered Clouds
7:55 AM 56.7 °F - 52.9 °F 87% 30.01 in 10.0 mi SSE 8.1 mph - N/A   Clear
8:15 AM 57.2 °F - 53.2 °F 87% 30.01 in 10.0 mi South 6.9 mph - N/A   Clear
8:35 AM 58.1 °F - 54.1 °F 87% 30.01 in 10.0 mi South 8.1 mph - N/A   Clear
8:55 AM 61.7 °F - 56.1 °F 82% 30.01 in 10.0 mi South 8.1 mph - N/A   Clear
9:15 AM 62.8 °F - 56.5 °F 80% 30.01 in 10.0 mi South 11.5 mph - N/A   Clear
9:35 AM 64.9 °F - 57.6 °F 77% 30.01 in 10.0 mi SSW 13.8 mph - N/A   Clear
9:55 AM 65.8 °F - 57.9 °F 76% 30.01 in 10.0 mi SSW 12.7 mph 18.4 mph N/A   Clear
10:55 AM 70.7 °F - 59.9 °F 69% 30.01 in 10.0 mi SSW 6.9 mph - N/A   Clear
11:15 AM 72.3 °F - 60.3 °F 66% 30.01 in 10.0 mi SSE 9.2 mph - N/A   Clear
11:35 AM 73.2 °F - 60.6 °F 65% 30.01 in 10.0 mi South 8.1 mph - N/A   Clear
11:55 AM 74.3 °F - 60.6 °F 62% 30.00 in 10.0 mi South 8.1 mph - N/A   Clear
12:15 PM 75.0 °F - 60.6 °F 61% 30.00 in 10.0 mi SSE 10.4 mph - N/A   Clear
12:35 PM 75.9 °F - 60.8 °F 59% 30.00 in 10.0 mi South 15.0 mph - N/A   Scattered Clouds
12:55 PM 76.1 °F - 61.2 °F 60% 29.99 in 10.0 mi South 13.8 mph 18.4 mph N/A   Mostly Cloudy
1:15 PM 77.2 °F - 61.0 °F 57% 29.99 in 10.0 mi South 10.4 mph 16.1 mph N/A   Mostly Cloudy
1:35 PM 76.3 °F - 60.6 °F 58% 29.98 in 10.0 mi South 11.5 mph - N/A   Mostly Cloudy
1:55 PM 78.3 °F - 60.6 °F 54% 29.97 in 10.0 mi SSE 16.1 mph 21.9 mph N/A   Mostly Cloudy
2:15 PM 77.9 °F - 60.4 °F 55% 29.95 in 10.0 mi SSE 10.4 mph - N/A   Mostly Cloudy
2:35 PM 79.3 °F - 59.2 °F 50% 29.95 in 10.0 mi South 15.0 mph 20.7 mph N/A   Mostly Cloudy
2:55 PM 80.4 °F 80.8 °F 57.7 °F 46% 29.94 in 10.0 mi South 15.0 mph 23.0 mph N/A   Scattered Clouds
3:15 PM 80.8 °F 81.1 °F 57.9 °F 46% 29.93 in 10.0 mi South 18.4 mph 24.2 mph N/A   Scattered Clouds
3:35 PM 81.7 °F 81.5 °F 57.2 °F 43% 29.93 in 10.0 mi South 20.7 mph 25.3 mph N/A   Scattered Clouds
3:55 PM 80.6 °F 80.7 °F 57.0 °F 44% 29.93 in 10.0 mi South 19.6 mph - N/A   Scattered Clouds
4:15 PM 78.3 °F - 57.6 °F 49% 29.93 in 10.0 mi South 18.4 mph 23.0 mph N/A   Scattered Clouds
4:35 PM 79.3 °F - 58.3 °F 48% 29.92 in 10.0 mi South 18.4 mph 21.9 mph N/A   Scattered Clouds
4:55 PM 78.6 °F - 57.7 °F 49% 29.92 in 10.0 mi South 19.6 mph 23.0 mph N/A   Clear
5:15 PM 78.3 °F - 58.5 °F 50% 29.92 in 10.0 mi South 20.7 mph 26.5 mph N/A   Clear
5:35 PM 77.9 °F - 58.6 °F 51% 29.92 in 10.0 mi South 17.3 mph 24.2 mph N/A   Clear
5:55 PM 77.2 °F - 59.0 °F 53% 29.92 in 10.0 mi South 15.0 mph - N/A   Clear
6:15 PM 76.3 °F - 59.0 °F 55% 29.93 in 10.0 mi SSE 15.0 mph 20.7 mph N/A   Clear
6:35 PM 75.2 °F - 59.2 °F 57% 29.93 in 10.0 mi SSE 11.5 mph 20.7 mph N/A   Clear
6:55 PM 73.4 °F - 59.0 °F 61% 29.93 in 10.0 mi SSE 9.2 mph - N/A   Clear
7:15 PM 72.0 °F - 59.0 °F 64% 29.93 in 10.0 mi SSE 11.5 mph - N/A   Clear
7:35 PM 70.9 °F - 58.6 °F 65% 29.94 in 10.0 mi SSE 10.4 mph - N/A   Clear
7:55 PM 68.5 °F - 58.5 °F 70% 29.94 in 10.0 mi SSE 10.4 mph - N/A   Clear
8:15 PM 67.8 °F - 58.3 °F 71% 29.95 in 10.0 mi SSE 11.5 mph - N/A   Clear
8:35 PM 67.3 °F - 58.3 °F 73% 29.95 in 10.0 mi SE 10.4 mph - N/A   Clear
8:55 PM 67.6 °F - 58.3 °F 72% 29.96 in 10.0 mi SSE 11.5 mph - N/A   Clear
9:15 PM 67.6 °F - 58.3 °F 72% 29.96 in 10.0 mi SSE 13.8 mph - N/A   Clear
9:35 PM 67.8 °F - 57.9 °F 71% 29.97 in 10.0 mi SSE 15.0 mph - N/A   Clear
9:55 PM 67.5 °F - 57.2 °F 70% 29.97 in 10.0 mi SSE 15.0 mph - N/A   Clear
10:15 PM 67.1 °F - 56.7 °F 69% 29.97 in 10.0 mi SSE 13.8 mph 19.6 mph N/A   Clear
10:35 PM 66.4 °F - 56.7 °F 71% 29.97 in 10.0 mi SSE 15.0 mph - N/A   Clear
10:55 PM 65.7 °F - 56.3 °F 72% 29.97 in 10.0 mi SSE 16.1 mph - N/A   Clear
11:15 PM 65.3 °F - 55.8 °F 71% 29.97 in 10.0 mi SSE 16.1 mph - N/A   Clear
11:35 PM 64.8 °F - 55.6 °F 72% 29.97 in 10.0 mi SSE 13.8 mph - N/A   Clear
11:55 PM 64.2 °F - 55.4 °F 73% 29.97 in 10.0 mi SSE 13.8 mph - N/A   Clear